This demonstration page uses our WeatherBlox Daily Observations layout. Learn more.

Left ArrowRight Arrow

44.8408, -93.29828

Hourly Observations for February 26, 2022

Temp ( °F °C ) Dew Point ( °F °C ) Humidity (%) Winds ( mph kmh ) Pressure ( in mb ) Visibility ( mi km ) Precip ( " mm )
12:53 am 00:53 Clear 5 -15 -1 -18.3 76 76 SSW 6 9 30.45 1031 10 16 0.00 0.00
1:53 am 01:53 Clear 6 -14.4 -1 -18.3 73 73 SW 8 13 30.44 1031 10 16 0.00 0.00
2:53 am 02:53 Clear 6 -14.4 -1 -18.3 73 73 SW 7 11 30.41 1030 10 16 0.00 0.00
3:53 am 03:53 Clear 7 -13.9 0 -17.8 73 73 SW 8 13 30.39 1029 10 16 0.00 0.00
4:53 am 04:53 Clear 7 -13.9 0 -17.8 73 73 SW 7 11 30.37 1029 10 16 0.00 0.00
5:53 am 05:53 Clear 7 -13.9 0 -17.8 73 73 WSW 7 11 30.36 1028 10 16 0.00 0.00
6:53 am 06:53 Clear 8 -13.3 0 -17.8 69 69 WSW 7 11 30.35 1028 10 16 0.00 0.00
7:53 am 07:53 Sunny 10 -12.2 2 -16.7 69 69 SW 12 19 30.34 1027 10 16 0.00 0.00
8:53 am 08:53 Sunny 14 -10 4 -15.6 64 64 SW 10 17 30.34 1027 10 16 0.00 0.00
9:53 am 09:53 Sunny 19 -7.2 6 -14.4 57 57 SW 13 20 30.32 1027 10 16 0.00 0.00
10:53 am 10:53 Sunny 23 -5 8 -13.3 53 53 SW 14 22 30.31 1026 10 16 0.00 0.00
11:53 am 11:53 Sunny 27 -2.8 10 -12.2 49 49 WSW 13 20 30.29 1026 10 16 0.00 0.00
12:53 pm 12:53 Sunny 31 -0.6 12 -11.1 45 45 WSW 12 19 30.26 1025 10 16 0.00 0.00
1:53 pm 13:53 Sunny 34 1.1 13 -10.6 42 42 WSW 14 22 30.23 1024 10 16 0.00 0.00
2:53 pm 14:53 Sunny 36 2.2 13 -10.6 39 39 WSW 16 26 30.20 1023 10 16 0.00 0.00
3:53 pm 15:53 Sunny 36 2.2 12 -11.1 37 37 WSW 16 26 30.20 1023 10 16 0.00 0.00
4:53 pm 16:53 Sunny 35 1.7 14 -10 42 42 WSW 14 22 30.20 1023 10 16 0.00 0.00
5:53 pm 17:53 Mostly Sunny 33 0.6 16 -8.9 49 49 WSW 13 20 30.20 1023 10 16 0.00 0.00
6:53 pm 18:53 Clear 31 -0.6 16 -8.9 54 54 WSW 10 17 30.20 1023 10 16 0.00 0.00
7:53 pm 19:53 Clear 30 -1.1 17 -8.3 58 58 WSW 12 19 30.20 1023 10 16 0.00 0.00
8:53 pm 20:53 Clear 28 -2.2 17 -8.3 63 63 WSW 13 20 30.19 1022 10 16 0.00 0.00
9:53 pm 21:53 Clear 27 -2.8 16 -8.9 63 63 W 10 17 30.20 1023 10 16 0.00 0.00
10:53 pm 22:53 Clear 25 -3.9 15 -9.4 66 66 W 8 13 30.21 1023 10 16 0.00 0.00
11:53 pm 23:53 Clear 24 -4.4 15 -9.4 68 68 W 7 11 30.21 1023 10 16 0.00 0.00

Powered by AerisWeather